カタリナ彗星

C/2009 K2 ( Catalina )

English version
Home page
Updated on October 3, 2010

---------------------------------------------------------------------

・ プロフィール

発見日 2009年5月18日
発見光度 19.4等
発見者 Catalina Sky Survey

・ 写真集

・ 軌道要素

The following orbital elements are taken from MPC 67683:

Epoch 2010 Feb. 13.0 TT = JDT 2455240.5
T 2010 Feb. 7.5202 TT                                   MPC
q   3.246164             (2000.0)            P               Q
z  +0.000652       Peri.  147.7012      +0.2955339      +0.5737424
 +/-0.000005       Node   123.8056      -0.9471533      +0.0715655
e   0.997883       Incl.   66.8212      +0.1247413      -0.8159032
From 583 observations 2009 May 18-Nov. 6, mean residual 0".6.

・ 星図

・ 光度変化

        m1 = 4.2 + 5 logΔ + 20.0 log r(t + 60)

---------------------------------------------------------------------

軌道要素はMPCのEphemerides and Orbital Elementsに掲載されたものです。
星図はステラナビゲータ Ver.8 (アストロアーツ) で作成したものです。
光度グラフはComet for Windowsで作成したものです。

---------------------------------------------------------------------

Copyright(C) Seiichi Yoshida (comet@aerith.net). All rights reserved.